Location: Oslo
(59.9170°N, 10.7500°E)
Time: 22:59:04
(UTC+02:00)

ISS - Pass Details

Date: 26 March 2019
Orbit: 408 x 410 km, 51.6° (Epoch: 21 April)

Event Time Altitude Azimuth Distance (km) Brightness Sun altitude
Rises 20:59:29 0° 242° (WSW) 2,336 0.4 -16.3°
Reaches altitude 10° 21:01:55 10° 224° (SW) 1,475 -0.9 -16.6°
Enters shadow 21:03:36 18° 196° (SSW) 1,084 -1.9 -16.7°
